吉林一号光学A星 (JILIN-1)

导读

JILIN 1(吉林一号)是中国于2015年10月7日在酒泉卫星发射中心用长征二号丁运载火箭发射的商业卫星组星,包含1颗光学遥感卫星、2颗视频卫星和1颗技术验证卫星,运行于约650公里高的太阳同步轨道。它是中国首颗自主研发的高分辨率对地观测光学成像卫星系统,可为国土资源监测、智慧城市建设等多领域提供遥感数据,标志着中国航天遥感商业化迈出关键一步。

Basic Information
目录编号:
40961
目录名称:
JILIN 1
国际标识:
2015-057D
轨道中心:
EARTH
卫星名称:
吉林一号光学A星
卫星全名:
吉林一号光学A星 (JILIN-1)
卫星状态:
在轨 (已飞行3902 天)
发射日期:
2015-10-07 UTC
国别 :
中国 (CN)
星等 :
--
Orbit Information
数据来源 国际轨道数据 AOE轨道数据
星历时间 2026-06-13T03:35:25+0800
6小时前
查看轨道信息
2026-06-12T17:00:00+0800
16小时前
查看轨道信息
半长轴 7013.296km 7013.297km
偏心率 0.0015338 0.0015916
轨道倾角 97.651° 97.657°
近地点辐角 278.801° 274.761°
升交点赤经 163.400° 162.974°
平近点角 81.146° 258.504°
近地点 624.402km 623.997km
远地点 645.916km 646.323km
周期 97.419分钟 97.419分钟
每日圈数 14.781537 14.781532
Detailed Information
平衡模式:
三轴稳定
覆盖范围:
全球
运营商:
长光卫星技术股份有限公司
运营商所在国:
中国
制造商(研发单位):
长光卫星技术股份有限公司
制造商所在国:
中国
使用方式:
暂无
Satellite Introduction
“吉林一号”卫星星座(JiLin-1)是长光卫星技术有限公司在建的核心工程,是我国目前最大的商业遥感卫星星座,具备了较强的服务能力。该卫星仍在工作。
2D Orbit Map
3D Orbit Map
Orbit Altitude Analysis Chart
Orbit Inclination Analysis Chart
Orbit Comprehensive Analysis Chart
View Comprehensive Chart